Location: Strada George Coșbuc
(47.6577°N, 23.5639°E)
Time: 11:28:22
(UTC+02:00)

ISS - Pass Details

Date: 29 July 2017
Orbit: 412 x 421 km, 51.6° (Epoch: 18 November)

Event Time Altitude Azimuth Distance (km) Brightness Sun altitude
Rises 22:19:17 0° 293° (WNW) 2,349 1.5 -11.0°
Reaches altitude 10° 22:21:23 10° 291° (WNW) 1,485 0.2 -11.2°
Maximum altitude 22:24:41 66° 209° (SSW) 454 -3.7 -11.6°
Enters shadow 22:26:48 20° 130° (SE) 1,016 -2.5 -11.9°
